Time,TemperatureF,DewpointF,PressureIn,WindDirection,WindDirectionDegrees,WindSpeedMPH,WindSpeedGustMPH,Humidity,HourlyPrecipIn,Conditions,Clouds,dailyrainin,SoftwareType,DateUTC
2013-01-29 00:01:00,35.0,32.0,29.81,ESE,115,8.0,12.0,90,0.00,,,0.02,,2013-01-29 06:01:00,
2013-01-29 00:11:00,35.0,32.0,29.81,ESE,115,8.0,12.0,90,0.00,,,0.02,,2013-01-29 06:11:00,
2013-01-29 00:21:00,35.0,32.0,29.79,ESE,108,4.0,10.0,89,0.00,,,0.02,,2013-01-29 06:21:00,
2013-01-29 00:32:00,35.0,32.0,29.79,ESE,114,3.0,11.0,90,0.00,,,0.01,,2013-01-29 06:32:00,
2013-01-29 00:41:00,35.0,32.0,29.79,ESE,114,3.0,11.0,90,0.00,,,0.01,,2013-01-29 06:41:00,
2013-01-29 00:52:00,35.0,32.0,29.79,ESE,108,7.0,14.0,90,0.02,,,0.03,,2013-01-29 06:52:00,
2013-01-29 01:01:00,35.0,33.0,29.77,SE,126,7.0,12.0,91,0.08,,,0.09,,2013-01-29 07:01:00,
2013-01-29 01:11:00,35.0,33.0,29.77,SE,126,7.0,12.0,91,0.08,,,0.09,,2013-01-29 07:11:00,
2013-01-29 01:21:00,35.0,33.0,29.80,SE,133,3.0,10.0,91,0.12,,,0.13,,2013-01-29 07:21:00,
2013-01-29 01:31:00,35.0,33.0,29.79,SE,142,5.0,10.0,91,0.15,,,0.16,,2013-01-29 07:31:00,
2013-01-29 01:41:00,35.0,33.0,29.79,SE,142,5.0,10.0,91,0.15,,,0.16,,2013-01-29 07:41:00,
2013-01-29 01:52:00,36.0,34.0,29.78,SE,130,3.0,9.0,92,0.18,,,0.21,,2013-01-29 07:52:00,
2013-01-29 02:02:00,36.0,34.0,29.76,ESE,108,3.0,4.0,92,0.17,,,0.24,,2013-01-29 08:02:00,
2013-01-29 02:11:00,36.0,34.0,29.76,ESE,108,3.0,4.0,92,0.17,,,0.24,,2013-01-29 08:11:00,
2013-01-29 02:21:00,36.0,34.0,29.76,ESE,122,1.0,11.0,92,0.12,,,0.25,,2013-01-29 08:21:00,
2013-01-29 02:31:00,36.0,34.0,29.75,SE,129,5.0,8.0,92,0.13,,,0.29,,2013-01-29 08:31:00,
2013-01-29 02:41:00,36.0,34.0,29.75,SE,129,5.0,8.0,92,0.13,,,0.29,,2013-01-29 08:41:00,
2013-01-29 02:52:00,36.0,34.0,29.75,SE,133,4.0,9.0,92,0.11,,,0.30,,2013-01-29 08:52:00,
2013-01-29 03:01:00,36.0,34.0,29.72,ESE,120,5.0,11.0,92,0.09,,,0.31,,2013-01-29 09:01:00,
2013-01-29 03:11:00,36.0,34.0,29.72,ESE,120,5.0,11.0,92,0.09,,,0.31,,2013-01-29 09:11:00,
2013-01-29 03:21:00,36.0,34.0,29.70,ESE,106,4.0,10.0,93,0.06,,,0.31,,2013-01-29 09:21:00,
2013-01-29 03:31:00,37.0,35.0,29.70,ESE,122,5.0,11.0,93,0.03,,,0.32,,2013-01-29 09:31:00,
2013-01-29 03:42:00,37.0,35.0,29.70,ESE,122,5.0,11.0,93,0.03,,,0.32,,2013-01-29 09:42:00,
2013-01-29 03:52:00,37.0,35.0,29.69,SE,126,2.0,10.0,93,0.04,,,0.33,,2013-01-29 09:52:00,
2013-01-29 04:01:00,37.0,35.0,29.70,SE,142,5.0,6.0,93,0.03,,,0.33,,2013-01-29 10:01:00,
2013-01-29 04:11:00,37.0,35.0,29.70,SE,142,5.0,6.0,93,0.03,,,0.33,,2013-01-29 10:11:00,
2013-01-29 04:21:00,38.0,36.0,29.68,SE,133,4.0,7.0,93,0.02,,,0.33,,2013-01-29 10:21:00,
2013-01-29 04:32:00,38.0,36.0,29.67,SE,129,0.0,7.0,93,0.02,,,0.34,,2013-01-29 10:32:00,
2013-01-29 04:41:00,38.0,36.0,29.67,SE,129,0.0,7.0,93,0.02,,,0.34,,2013-01-29 10:41:00,
2013-01-29 04:52:00,39.0,37.0,29.67,ESE,103,0.0,4.0,93,0.01,,,0.34,,2013-01-29 10:52:00,
2013-01-29 05:01:00,39.0,37.0,29.65,ESE,123,4.0,7.0,94,0.02,,,0.35,,2013-01-29 11:01:00,
2013-01-29 05:11:00,39.0,37.0,29.65,ESE,123,4.0,7.0,94,0.02,,,0.35,,2013-01-29 11:11:00,
2013-01-29 05:21:00,39.0,37.0,29.64,SE,128,2.0,8.0,94,0.02,,,0.35,,2013-01-29 11:21:00,
2013-01-29 05:32:00,39.0,37.0,29.62,ESE,105,9.0,9.0,94,0.01,,,0.35,,2013-01-29 11:32:00,
2013-01-29 05:42:00,39.0,37.0,29.62,ESE,105,9.0,9.0,94,0.01,,,0.35,,2013-01-29 11:42:00,
2013-01-29 05:52:00,40.0,38.0,29.63,SE,126,5.0,12.0,94,0.01,,,0.35,,2013-01-29 11:52:00,
2013-01-29 06:02:00,40.0,38.0,29.62,SE,146,6.0,14.0,94,0.00,,,0.35,,2013-01-29 12:02:00,
2013-01-29 06:12:00,40.0,38.0,29.62,SE,146,6.0,14.0,94,0.00,,,0.35,,2013-01-29 12:12:00,
2013-01-29 06:22:00,40.0,38.0,29.65,SSE,167,3.0,11.0,94,0.05,,,0.40,,2013-01-29 12:22:00,
2013-01-29 06:32:00,41.0,39.0,29.62,ESE,121,5.0,12.0,94,0.09,,,0.44,,2013-01-29 12:32:00,
2013-01-29 06:43:00,41.0,39.0,29.62,ESE,121,5.0,12.0,94,0.09,,,0.44,,2013-01-29 12:43:00,
2013-01-29 06:52:00,41.0,39.0,29.61,SE,124,8.0,12.0,94,0.09,,,0.44,,2013-01-29 12:52:00,
2013-01-29 07:02:00,41.0,39.0,29.62,South,186,1.0,10.0,94,0.09,,,0.44,,2013-01-29 13:02:00,
2013-01-29 07:12:00,41.0,39.0,29.62,South,186,1.0,10.0,94,0.09,,,0.44,,2013-01-29 13:12:00,
2013-01-29 07:22:00,41.0,39.0,29.62,SW,217,0.0,4.0,94,0.04,,,0.44,,2013-01-29 13:22:00,
2013-01-29 07:32:00,41.0,39.0,29.63,SW,217,0.0,5.0,94,0.01,,,0.44,,2013-01-29 13:32:00,
2013-01-29 07:42:00,41.0,39.0,29.63,SW,217,0.0,5.0,94,0.01,,,0.44,,2013-01-29 13:42:00,
2013-01-29 07:52:00,41.0,39.0,29.63,South,188,1.0,6.0,94,0.06,,,0.50,,2013-01-29 13:52:00,
2013-01-29 08:02:00,40.0,38.0,29.62,ENE,61,0.0,8.0,94,0.12,,,0.56,,2013-01-29 14:02:00,
2013-01-29 08:12:00,40.0,38.0,29.62,SSE,153,4.0,4.0,94,0.12,,,0.56,,2013-01-29 14:12:00,
2013-01-29 08:22:00,40.0,38.0,29.62,SSE,153,4.0,4.0,94,0.12,,,0.56,,2013-01-29 14:22:00,
2013-01-29 08:33:00,40.0,38.0,29.61,SSE,150,0.0,7.0,94,0.12,,,0.56,,2013-01-29 14:33:00,
2013-01-29 08:43:00,40.0,38.0,29.61,SSE,150,0.0,7.0,94,0.12,,,0.56,,2013-01-29 14:43:00,
2013-01-29 08:52:00,41.0,39.0,29.60,ESE,106,1.0,4.0,94,0.06,,,0.56,,2013-01-29 14:52:00,
2013-01-29 09:02:00,41.0,39.0,29.59,ESE,111,0.0,1.0,94,0.00,,,0.56,,2013-01-29 15:02:00,
2013-01-29 09:12:00,41.0,39.0,29.59,ESE,111,0.0,1.0,94,0.00,,,0.56,,2013-01-29 15:12:00,
2013-01-29 09:22:00,41.0,39.0,29.59,East,84,0.0,3.0,94,0.00,,,0.56,,2013-01-29 15:22:00,
2013-01-29 09:33:00,42.0,40.0,29.59,NE,52,1.0,2.0,94,0.00,,,0.56,,2013-01-29 15:33:00,
2013-01-29 09:43:00,42.0,40.0,29.59,NE,52,1.0,2.0,94,0.00,,,0.56,,2013-01-29 15:43:00,
2013-01-29 09:52:00,43.0,41.0,29.58,NE,56,0.0,3.0,94,0.00,,,0.56,,2013-01-29 15:52:00,
2013-01-29 10:02:00,44.0,43.0,29.56,NE,56,1.0,3.0,95,0.00,,,0.56,,2013-01-29 16:02:00,
2013-01-29 10:12:00,44.0,43.0,29.56,NE,56,1.0,3.0,95,0.00,,,0.56,,2013-01-29 16:12:00,
2013-01-29 10:22:00,45.0,44.0,29.56,South,175,3.0,5.0,95,0.00,,,0.56,,2013-01-29 16:22:00,
2013-01-29 10:32:00,48.0,47.0,29.57,South,183,4.0,10.0,95,0.00,,,0.56,,2013-01-29 16:32:00,
2013-01-29 10:42:00,48.0,47.0,29.57,South,183,4.0,10.0,95,0.00,,,0.56,,2013-01-29 16:42:00,
2013-01-29 10:53:00,50.0,49.0,29.56,SSW,198,5.0,9.0,95,0.00,,,0.56,,2013-01-29 16:53:00,
2013-01-29 11:03:00,49.0,48.0,29.58,SSW,209,1.0,7.0,95,0.00,,,0.56,,2013-01-29 17:03:00,
2013-01-29 11:12:00,49.0,48.0,29.58,SSW,209,1.0,7.0,95,0.00,,,0.56,,2013-01-29 17:12:00,
2013-01-29 11:22:00,49.0,48.0,29.58,SSW,211,2.0,4.0,95,0.00,,,0.56,,2013-01-29 17:22:00,
2013-01-29 11:32:00,49.0,48.0,29.58,SW,232,2.0,6.0,95,0.00,,,0.56,,2013-01-29 17:32:00,
2013-01-29 11:42:00,49.0,48.0,29.58,SW,232,2.0,6.0,95,0.00,,,0.56,,2013-01-29 17:42:00,
2013-01-29 11:52:00,49.0,48.0,29.58,SW,234,4.0,6.0,95,0.00,,,0.56,,2013-01-29 17:52:00,
2013-01-29 12:03:00,49.0,48.0,29.57,SSW,192,4.0,5.0,95,0.00,,,0.56,,2013-01-29 18:03:00,
2013-01-29 12:12:00,49.0,48.0,29.57,SSW,192,4.0,5.0,95,0.00,,,0.56,,2013-01-29 18:12:00,
2013-01-29 12:22:00,50.0,49.0,29.57,WSW,238,1.0,6.0,95,0.00,,,0.56,,2013-01-29 18:22:00,
2013-01-29 12:33:00,50.0,49.0,29.57,WSW,237,3.0,5.0,95,0.00,,,0.56,,2013-01-29 18:33:00,
2013-01-29 12:42:00,50.0,49.0,29.57,WSW,237,3.0,5.0,95,0.00,,,0.56,,2013-01-29 18:42:00,
2013-01-29 12:51:00,50.0,49.0,29.57,SW,225,2.0,5.0,95,0.00,,,0.56,,2013-01-29 18:51:00,
2013-01-29 13:02:00,49.0,48.0,29.56,SW,223,2.0,5.0,95,0.00,,,0.56,,2013-01-29 19:02:00,
2013-01-29 13:12:00,49.0,48.0,29.56,SW,223,2.0,5.0,95,0.00,,,0.56,,2013-01-29 19:12:00,
2013-01-29 13:22:00,48.0,47.0,29.56,WNW,284,4.0,4.0,95,0.00,,,0.56,,2013-01-29 19:22:00,
2013-01-29 13:32:00,48.0,46.0,29.55,WNW,291,1.0,2.0,94,0.00,,,0.56,,2013-01-29 19:32:00,
2013-01-29 13:42:00,48.0,46.0,29.55,WNW,291,1.0,2.0,94,0.00,,,0.56,,2013-01-29 19:42:00,
2013-01-29 13:52:00,47.0,45.0,29.54,West,277,0.0,4.0,94,0.00,,,0.56,,2013-01-29 19:52:00,
2013-01-29 14:02:00,46.0,44.0,29.55,West,277,2.0,2.0,94,0.00,,,0.56,,2013-01-29 20:02:00,
2013-01-29 14:12:00,46.0,44.0,29.55,West,277,2.0,2.0,94,0.00,,,0.56,,2013-01-29 20:12:00,
2013-01-29 14:22:00,47.0,45.0,29.56,West,259,1.0,5.0,94,0.00,,,0.56,,2013-01-29 20:22:00,
2013-01-29 14:33:00,47.0,45.0,29.57,WNW,283,0.0,3.0,94,0.01,,,0.57,,2013-01-29 20:33:00,
2013-01-29 14:42:00,47.0,45.0,29.57,WNW,283,0.0,3.0,94,0.01,,,0.57,,2013-01-29 20:42:00,
2013-01-29 14:53:00,46.0,44.0,29.57,NW,306,5.0,6.0,94,0.03,,,0.59,,2013-01-29 20:53:00,
2013-01-29 15:02:00,46.0,44.0,29.57,West,271,2.0,4.0,94,0.06,,,0.62,,2013-01-29 21:02:00,
2013-01-29 15:12:00,46.0,44.0,29.57,West,271,2.0,4.0,94,0.06,,,0.62,,2013-01-29 21:12:00,
2013-01-29 15:22:00,45.0,43.0,29.57,WNW,298,2.0,3.0,94,0.08,,,0.64,,2013-01-29 21:22:00,
2013-01-29 15:33:00,45.0,43.0,29.56,WNW,300,3.0,5.0,94,0.10,,,0.67,,2013-01-29 21:33:00,
2013-01-29 15:42:00,45.0,43.0,29.56,WNW,300,3.0,5.0,94,0.10,,,0.67,,2013-01-29 21:42:00,
2013-01-29 15:52:00,43.0,41.0,29.56,NW,317,8.0,15.0,94,0.09,,,0.68,,2013-01-29 21:52:00,
2013-01-29 16:02:00,41.0,39.0,29.55,NW,304,3.0,8.0,94,0.06,,,0.68,,2013-01-29 22:02:00,
2013-01-29 16:12:00,41.0,39.0,29.55,NW,304,3.0,8.0,94,0.06,,,0.68,,2013-01-29 22:12:00,
2013-01-29 16:22:00,41.0,39.0,29.54,NNW,334,4.0,9.0,94,0.04,,,0.68,,2013-01-29 22:22:00,
2013-01-29 16:33:00,40.0,38.0,29.54,WNW,283,7.0,10.0,94,0.01,,,0.68,,2013-01-29 22:33:00,
2013-01-29 16:42:00,40.0,38.0,29.54,WNW,283,7.0,10.0,94,0.01,,,0.68,,2013-01-29 22:42:00,
2013-01-29 16:52:00,40.0,38.0,29.55,NNW,338,8.0,9.0,94,0.00,,,0.68,,2013-01-29 22:52:00,
2013-01-29 17:02:00,39.0,37.0,29.56,WNW,298,7.0,11.0,94,0.00,,,0.68,,2013-01-29 23:02:00,
2013-01-29 17:12:00,39.0,37.0,29.56,WNW,298,7.0,11.0,94,0.00,,,0.68,,2013-01-29 23:12:00,
2013-01-29 17:22:00,39.0,37.0,29.56,NNW,342,3.0,9.0,93,0.00,,,0.68,,2013-01-29 23:22:00,
2013-01-29 17:32:00,38.0,36.0,29.56,WNW,286,4.0,11.0,93,0.00,,,0.68,,2013-01-29 23:32:00,
2013-01-29 17:42:00,38.0,36.0,29.56,WNW,286,4.0,11.0,93,0.00,,,0.68,,2013-01-29 23:42:00,
2013-01-29 17:52:00,38.0,36.0,29.56,NW,322,4.0,9.0,93,0.00,,,0.68,,2013-01-29 23:52:00,
2013-01-29 18:02:00,37.0,35.0,29.57,WNW,294,3.0,6.0,93,0.01,,,0.69,,2013-01-30 00:02:00,
2013-01-29 18:12:00,37.0,35.0,29.57,WNW,294,3.0,6.0,93,0.01,,,0.69,,2013-01-30 00:12:00,
2013-01-29 18:22:00,37.0,35.0,29.57,NW,310,10.0,10.0,93,0.02,,,0.70,,2013-01-30 00:22:00,
2013-01-29 18:32:00,37.0,35.0,29.56,NW,311,7.0,11.0,93,0.03,,,0.71,,2013-01-30 00:32:00,
2013-01-29 18:42:00,37.0,35.0,29.56,NW,311,7.0,11.0,93,0.03,,,0.71,,2013-01-30 00:42:00,
2013-01-29 18:53:00,36.0,34.0,29.56,NNW,336,10.0,11.0,93,0.04,,,0.72,,2013-01-30 00:53:00,
2013-01-29 19:02:00,36.0,34.0,29.56,NW,325,3.0,11.0,93,0.03,,,0.72,,2013-01-30 01:02:00,
2013-01-29 19:12:00,36.0,34.0,29.56,NW,325,3.0,11.0,93,0.03,,,0.72,,2013-01-30 01:12:00,
2013-01-29 19:22:00,36.0,34.0,29.56,NNW,329,2.0,7.0,93,0.04,,,0.74,,2013-01-30 01:22:00,
2013-01-29 19:32:00,36.0,34.0,29.57,NW,311,4.0,8.0,93,0.03,,,0.74,,2013-01-30 01:32:00,
2013-01-29 19:42:00,36.0,34.0,29.57,NW,311,4.0,8.0,93,0.03,,,0.74,,2013-01-30 01:42:00,
2013-01-29 19:52:00,36.0,34.0,29.56,NW,313,5.0,7.0,93,0.03,,,0.75,,2013-01-30 01:52:00,
2013-01-29 20:02:00,36.0,34.0,29.55,NNW,342,3.0,8.0,93,0.02,,,0.75,,2013-01-30 02:02:00,
2013-01-29 20:12:00,36.0,34.0,29.55,NNW,342,3.0,8.0,93,0.02,,,0.75,,2013-01-30 02:12:00,
2013-01-29 20:22:00,35.0,33.0,29.56,NW,324,2.0,6.0,92,0.01,,,0.75,,2013-01-30 02:22:00,
2013-01-29 20:33:00,35.0,33.0,29.55,NW,319,4.0,8.0,92,0.01,,,0.75,,2013-01-30 02:33:00,
2013-01-29 20:42:00,35.0,33.0,29.55,NW,319,4.0,8.0,92,0.01,,,0.75,,2013-01-30 02:42:00,
2013-01-29 20:52:00,35.0,33.0,29.56,NW,318,4.0,9.0,92,0.00,,,0.75,,2013-01-30 02:52:00,
2013-01-29 21:03:00,35.0,33.0,29.54,NW,324,4.0,7.0,93,0.00,,,0.75,,2013-01-30 03:03:00,
2013-01-29 21:11:00,35.0,33.0,29.54,NW,324,4.0,7.0,93,0.00,,,0.75,,2013-01-30 03:11:00,
2013-01-29 21:22:00,35.0,33.0,29.55,NW,326,6.0,7.0,93,0.01,,,0.76,,2013-01-30 03:22:00,
2013-01-29 21:32:00,35.0,33.0,29.53,NW,311,5.0,9.0,93,0.01,,,0.76,,2013-01-30 03:32:00,
2013-01-29 21:42:00,35.0,33.0,29.53,NW,311,5.0,9.0,93,0.01,,,0.76,,2013-01-30 03:42:00,
2013-01-29 21:51:00,34.0,32.0,29.54,NW,322,3.0,9.0,93,0.02,,,0.77,,2013-01-30 03:51:00,
2013-01-29 22:02:00,35.0,33.0,29.54,NNW,333,3.0,9.0,93,0.03,,,0.78,,2013-01-30 04:02:00,
2013-01-29 22:11:00,35.0,33.0,29.54,NNW,333,3.0,9.0,93,0.03,,,0.78,,2013-01-30 04:11:00,
2013-01-29 22:22:00,35.0,33.0,29.54,NW,313,5.0,9.0,93,0.04,,,0.80,,2013-01-30 04:22:00,
2013-01-29 22:32:00,35.0,33.0,29.54,North,355,2.0,9.0,93,0.05,,,0.81,,2013-01-30 04:32:00,
2013-01-29 22:41:00,35.0,33.0,29.54,North,355,2.0,9.0,93,0.05,,,0.81,,2013-01-30 04:41:00,
2013-01-29 22:52:00,35.0,33.0,29.54,NNW,341,4.0,7.0,93,0.06,,,0.83,,2013-01-30 04:52:00,
2013-01-29 23:03:00,35.0,33.0,29.52,NNW,329,2.0,9.0,93,0.05,,,0.84,,2013-01-30 05:03:00,
2013-01-29 23:12:00,35.0,33.0,29.52,NNW,329,2.0,9.0,93,0.05,,,0.84,,2013-01-30 05:12:00,
2013-01-29 23:22:00,35.0,33.0,29.53,North,10,6.0,11.0,93,0.04,,,0.84,,2013-01-30 05:22:00,
2013-01-29 23:32:00,35.0,33.0,29.54,NW,325,5.0,9.0,93,0.02,,,0.84,,2013-01-30 05:32:00,
2013-01-29 23:43:00,35.0,33.0,29.54,NW,325,5.0,9.0,93,0.02,,,0.84,,2013-01-30 05:43:00,
2013-01-29 23:52:00,35.0,33.0,29.55,North,360,4.0,9.0,93,0.02,,,0.84,,2013-01-30 05:52:00,